Wind_Speed
4 5 5 4 5 5 6 6 6 5 6 6 7 7 8 8 8 8 8 9 9 9 9 9 9 10 11 12 12 13 13 13 13 13 13 14 14 15 15 16 16 16 16
4 5 5 5 5 6 6 7 7 6 7 7 7 8 8 9 9 10 9 9 10 10 10 10 10 11 12 13 13 13 13 13 13 13 14 15 15 15 15 16 17 16 17
5 5 6 6 6 7 7 7 7 7 8 8 8 8 9 9 10 11 11 11 11 11 11 11 11 12 12 13 13 14 14 14 14 14 15 15 15 15 16 17 16 17 18
6 6 7 7 7 8 8 8 8 8 9 9 9 9 10 10 11 12 12 11 12 12 12 12 13 13 14 14 14 15 15 15 15 15 16 16 17 17 17 17 17 18 18
8 7 7 8 8 9 9 9 9 10 10 10 10 10 11 12 12 13 13 13 13 13 13 14 14 15 15 16 16 16 16 16 16 17 17 17 18 18 18 18 19 20 20
10 10 10 9 10 10 11 10 11 11 12 12 12 12 12 13 13 14 14 14 14 15 15 15 16 16 17 17 18 18 18 18 18 18 18 19 18 18 19 20 20 21 22
13 13 12 12 12 12 12 12 12 13 13 14 14 14 14 14 15 15 16 16 16 16 17 17 17 18 18 19 19 18 19 19 19 20 20 19 20 20 21 21 21 22 23
15 15 15 14 14 13 14 14 14 15 15 16 16 16 16 16 16 17 17 17 17 18 18 18 18 19 19 20 20 20 20 20 20 20 21 21 21 22 23 23 23 23 24
17 17 17 17 17 16 16 16 16 17 17 18 16 17 18 18 19 18 18 19 19 19 19 19 19 20 21 21 21 21 21 21 21 21 22 22 23 23 23 24 24 24 25
20 20 20 19 19 18 18 17 18 18 19 19 18 19 19 19 20 20 20 20 20 21 21 21 22 22 22 22 22 22 22 23 23 23 23 24 24 24 24 25 25 26 26
22 22 21 21 21 20 20 19 19 20 21 21 21 21 21 21 21 21 22 22 23 23 23 23 23 24 24 24 24 24 25 25 25 25 24 25 25 25 25 26 26 26 26
24 24 24 23 22 21 21 21 22 22 23 23 23 23 22 22 22 23 24 25 25 25 25 25 25 26 26 27 26 27 27 26 26 26 25 26 26 27 27 27 27 27 28
25 25 25 24 23 23 23 23 24 24 25 25 26 25 24 24 25 25 26 26 26 26 27 27 27 27 28 28 28 28 28 27 27 27 27 27 27 28 28 28 28 29 29
25 25 25 25 25 25 25 25 26 26 26 27 27 27 27 26 26 26 27 27 27 27 28 28 28 28 28 29 29 29 29 28 29 29 29 29 29 29 29 30 30 29 29
26 27 27 26 26 25 26 27 27 27 27 28 28 29 29 27 26 27 28 28 28 28 29 29 29 29 29 29 30 29 29 29 29 29 29 29 30 30 31 31 30 29 29
27 28 28 29 28 27 27 27 28 28 28 28 29 29 29 28 28 28 28 29 29 29 30 31 30 30 30 30 30 29 30 30 30 30 30 30 30 31 30 30 30 30 29
30 30 31 30 29 29 28 29 28 28 28 29 30 30 29 30 29 29 29 29 29 30 30 30 31 31 30 30 30 30 30 31 31 31 31 31 31 31 31 30 30 30 30
32 32 33 31 30 29 29 29 29 29 30 31 30 30 30 30 30 29 29 29 29 30 30 30 30 31 31 31 31 31 31 31 31 31 31 31 31 31 30 30 30 30 30
33 33 33 32 30 29 30 30 30 30 31 32 31 31 30 31 31 30 30 31 31 30 30 31 31 31 31 31 32 31 31 31 32 32 32 32 32 31 31 30 30 30 30
33 32 32 31 31 30 31 31 31 31 32 32 31 31 31 31 31 31 30 31 31 31 31 31 31 31 31 32 31 31 31 31 31 31 31 31 31 31 30 30 29 29 29
32 32 32 32 31 31 31 31 31 31 31 31 32 32 31 31 30 30 30 30 31 31 31 31 31 31 31 31 31 31 30 30 30 31 31 30 30 30 30 29 29 29 29
31 31 32 32 32 32 32 32 31 31 31 31 31 31 31 30 29 29 29 29 30 30 30 30 31 31 30 30 30 30 31 30 30 29 30 30 30 30 29 29 29 29 29
32 33 33 33 33 32 32 32 32 32 32 32 32 32 30 30 28 29 28 29 30 30 30 30 31 30 30 30 30 31 30 30 29 29 29 29 29 29 29 29 29 29 29
33 33 33 32 32 32 32 32 32 33 33 33 33 31 30 29 29 29 29 30 30 30 30 30 30 31 31 30 30 30 30 29 29 29 29 29 29 29 29 29 29 29 29
32 32 32 32 32 33 33 33 32 32 32 32 32 32 30 30 30 30 30 30 30 30 31 31 30 30 30 30 30 30 30 29 28 28 29 29 29 29 28 29 29 29 29
31 32 32 32 32 32 33 33 33 32 32 31 31 31 30 30 30 30 30 30 30 31 31 31 30 30 30 30 30 30 30 29 28 28 28 28 28 28 28 28 28 28 29
Wind_Direction
354 354 351 355 1 4 1 357 353 345 337 340 343 344 344 342 339 337 335 333 329 326 326 323 317 314 315 315 314 313 313 311 310 308 308 310 310 308 306 304 305 304 299
336 340 343 344 345 345 345 347 345 340 335 331 335 335 338 339 338 335 332 330 327 325 325 323 317 314 313 314 313 312 312 311 308 306 308 310 310 309 308 306 304 304 300
314 322 330 335 332 333 333 332 333 332 331 329 331 329 330 331 331 332 331 328 325 322 321 321 319 317 316 315 314 311 309 307 305 304 305 306 307 307 306 306 305 306 303
300 307 315 317 317 319 319 320 323 323 323 322 321 320 320 323 325 329 329 327 325 323 320 317 316 317 316 315 314 312 310 308 307 305 304 303 304 307 306 305 305 306 306
290 296 301 305 307 308 310 310 313 317 318 318 319 316 315 316 319 321 323 322 320 317 315 314 314 314 315 313 312 310 308 307 307 306 304 304 305 305 305 305 304 304 304
284 288 287 291 297 299 301 303 305 309 311 311 313 311 310 311 313 315 316 317 318 316 313 311 311 312 313 313 311 309 307 306 306 306 305 305 304 304 304 304 304 303 302
275 281 286 286 287 290 294 296 298 302 304 305 309 309 307 307 308 309 312 312 312 314 313 311 311 311 311 311 310 308 308 307 305 305 305 305 304 303 303 304 304 303 303
272 276 280 283 282 283 286 290 292 296 299 300 301 303 303 303 302 304 307 309 309 310 312 312 311 310 309 309 307 306 305 305 305 304 305 304 303 302 302 302 303 303 303
268 272 275 277 276 278 282 285 287 291 295 298 295 295 297 298 299 300 304 306 306 307 308 309 309 309 309 308 306 305 305 304 303 302 302 302 302 303 303 303 302 302 302
269 270 270 271 274 278 281 283 285 286 290 295 294 292 294 297 299 296 298 302 303 304 304 305 307 309 308 307 305 305 305 304 303 302 303 302 302 303 303 302 301 300 300
267 269 270 268 271 275 279 281 283 284 285 288 289 291 292 294 295 295 296 299 302 303 302 303 305 306 307 306 304 304 303 302 301 300 301 302 301 302 302 301 301 300 299
267 267 269 269 271 275 279 281 282 285 286 287 288 287 288 289 292 294 295 297 299 300 300 301 302 303 304 303 303 303 302 302 300 300 299 302 302 301 301 300 300 299 297
267 268 268 267 268 273 277 280 282 285 286 286 287 287 286 288 289 291 292 294 296 298 298 299 300 301 302 303 302 302 301 300 300 300 300 300 300 301 300 300 299 299 297
268 269 270 268 270 271 275 280 282 284 286 286 284 285 285 286 289 290 291 292 295 297 298 298 299 301 301 302 302 300 300 300 300 300 299 300 299 300 300 300 299 298 298
269 270 272 272 271 272 276 279 281 282 283 283 284 285 284 284 287 290 290 292 294 295 296 297 298 299 300 301 301 299 299 298 298 299 299 300 301 300 300 300 299 299 297
269 271 273 275 275 276 277 278 279 281 283 282 284 284 283 285 287 290 292 293 294 295 295 296 296 296 297 298 299 299 298 297 298 299 299 300 301 301 301 299 298 297 297
269 271 273 274 278 281 281 282 281 281 282 283 283 284 285 285 286 290 292 293 293 293 294 295 296 296 296 297 297 297 297 297 297 298 298 299 300 301 301 299 298 297 296
269 271 273 275 277 278 281 282 282 282 282 283 284 286 285 284 285 288 290 291 291 292 293 294 295 296 296 296 296 296 296 296 297 298 298 298 298 299 300 299 299 299 297
269 270 272 274 275 278 281 281 282 283 283 282 284 285 285 285 284 287 289 290 289 291 293 294 295 296 295 295 295 294 294 295 297 298 298 298 298 299 298 298 298 298 297
268 270 271 271 273 276 279 280 282 283 283 283 284 284 283 285 285 287 288 289 290 291 292 294 295 295 295 295 294 294 294 295 296 297 297 298 298 298 298 299 299 299 298
269 271 273 272 273 275 277 278 280 282 283 284 287 286 285 285 284 285 287 288 289 290 292 292 293 294 294 294 295 294 294 295 296 296 296 297 297 297 297 298 300 300 301
272 274 274 274 274 275 277 278 279 281 283 284 287 288 288 287 285 286 287 288 290 290 291 292 292 293 293 294 295 294 294 295 296 297 298 297 297 297 297 298 299 300 299
272 272 273 273 274 276 277 278 279 280 282 283 285 286 285 286 286 287 287 289 290 290 291 291 291 291 291 293 293 295 296 295 296 297 298 297 297 297 297 297 298 299 299
273 273 273 272 274 275 275 277 279 280 282 283 283 284 284 284 285 286 288 289 289 290 290 290 290 290 290 291 293 296 296 295 295 296 296 298 298 296 295 296 297 297 298
274 276 276 274 274 275 276 277 278 280 282 282 282 282 282 283 284 286 288 289 289 288 289 289 290 290 290 291 293 295 296 297 298 298 298 298 299 299 297 296 296 296 297
275 276 277 276 275 275 276 277 278 279 280 280 281 280 281 281 282 284 285 287 288 289 289 290 290 290 290 291 293 295 296 298 298 298 297 297 298 299 297 297 298 298 298
Height
5909 5908 5908 5907 5906 5904 5903 5902 5901 5900 5899 5898 5896 5895 5893 5892 5890 5888 5886 5885 5883 5881 5880 5878 5876 5874 5873 5871 5869 5867 5865 5863 5861 5859 5857 5855 5853 5851 5849 5847 5844 5842 5840
5908 5908 5907 5906 5905 5904 5902 5901 5900 5899 5897 5896 5895 5893 5892 5890 5888 5887 5885 5883 5881 5879 5877 5875 5874 5872 5870 5868 5866 5864 5862 5860 5858 5856 5853 5851 5849 5847 5845 5842 5840 5838 5836
5907 5906 5905 5905 5903 5902 5901 5900 5898 5897 5896 5894 5893 5892 5890 5889 5887 5885 5883 5881 5879 5877 5875 5873 5871 5869 5867 5865 5863 5860 5858 5856 5854 5852 5850 5847 5845 5843 5841 5838 5836 5834 5831
5906 5905 5904 5903 5902 5901 5899 5898 5897 5895 5894 5892 5891 5889 5888 5886 5885 5882 5880 5878 5877 5874 5872 5870 5868 5866 5864 5862 5859 5857 5854 5852 5849 5848 5845 5843 5841 5839 5836 5834 5832 5829 5827
5903 5903 5902 5901 5900 5899 5897 5896 5895 5893 5892 5890 5888 5887 5885 5884 5882 5880 5878 5876 5874 5871 5869 5867 5865 5863 5860 5858 5856 5853 5851 5848 5845 5843 5841 5839 5837 5834 5832 5829 5827 5824 5822
5900 5900 5899 5898 5897 5896 5895 5893 5892 5891 5889 5887 5886 5884 5882 5881 5879 5877 5875 5873 5870 5868 5866 5863 5861 5859 5857 5854 5852 5849 5847 5844 5841 5839 5836 5834 5832 5830 5827 5824 5822 5819 5817
5897 5897 5896 5895 5894 5893 5892 5890 5889 5888 5886 5884 5882 5881 5879 5878 5876 5874 5872 5869 5867 5865 5862 5859 5857 5855 5852 5850 5847 5845 5842 5839 5837 5835 5832 5829 5827 5824 5822 5819 5816 5814 5811
5893 5892 5892 5891 5890 5889 5888 5887 5885 5884 5882 5880 5878 5876 5875 5874 5872 5870 5868 5865 5863 5861 5858 5855 5853 5850 5848 5845 5843 5840 5838 5835 5832 5829 5827 5824 5821 5819 5816 5813 5810 5807 5805
5887 5887 5887 5886 5885 5884 5883 5882 5881 5879 5877 5875 5872 5872 5870 5869 5867 5865 5863 5861 5859 5856 5854 5851 5849 5846 5843 5840 5838 5835 5833 5830 5827 5824 5821 5819 5816 5812 5809 5807 5804 5801 5798
5881 5881 5881 5880 5880 5879 5878 5877 5875 5874 5873 5871 5868 5867 5865 5864 5862 5860 5858 5856 5854 5852 5849 5846 5844 5841 5838 5835 5833 5830 5827 5824 5821 5818 5815 5812 5809 5806 5803 5800 5797 5794 5791
5875 5875 5874 5874 5874 5873 5872 5871 5870 5868 5867 5865 5864 5862 5860 5859 5857 5855 5853 5851 5849 5846 5844 5841 5838 5835 5832 5829 5827 5824 5821 5818 5815 5812 5809 5805 5803 5799 5796 5793 5790 5787 5784
5868 5868 5868 5867 5867 5867 5866 5865 5863 5862 5861 5859 5857 5856 5854 5853 5851 5849 5847 5845 5842 5840 5837 5835 5832 5829 5826 5823 5820 5817 5814 5811 5808 5805 5802 5799 5795 5792 5789 5786 5782 5779 5776
5861 5861 5860 5860 5860 5860 5859 5858 5857 5855 5854 5852 5851 5849 5847 5846 5843 5841 5839 5837 5835 5833 5830 5827 5825 5822 5819 5816 5813 5810 5807 5804 5801 5797 5794 5791 5788 5785 5782 5778 5775 5772 5769
5853 5853 5853 5852 5852 5852 5851 5850 5849 5848 5846 5845 5843 5842 5840 5838 5836 5834 5832 5829 5827 5825 5822 5820 5817 5814 5811 5808 5805 5802 5799 5796 5793 5790 5787 5784 5780 5777 5774 5770 5767 5764 5761
5846 5846 5845 5845 5844 5843 5843 5842 5841 5840 5838 5837 5835 5834 5832 5830 5828 5826 5823 5821 5819 5817 5814 5812 5809 5807 5804 5801 5798 5794 5791 5788 5785 5782 5779 5775 5772 5769 5765 5762 5759 5756 5753
5838 5838 5837 5837 5835 5834 5833 5833 5832 5831 5830 5828 5826 5825 5823 5821 5819 5817 5815 5813 5811 5808 5806 5804 5801 5798 5795 5792 5789 5786 5783 5780 5777 5774 5771 5767 5764 5760 5757 5754 5750 5747 5744
5830 5829 5829 5828 5827 5826 5825 5824 5823 5822 5820 5819 5817 5816 5814 5812 5810 5808 5806 5804 5802 5800 5797 5795 5792 5789 5787 5784 5781 5778 5775 5772 5768 5765 5762 5759 5755 5752 5748 5745 5742 5738 5735
5820 5820 5820 5819 5819 5818 5817 5815 5814 5813 5811 5809 5808 5806 5804 5802 5801 5798 5797 5795 5793 5791 5788 5786 5783 5780 5778 5775 5771 5769 5765 5762 5759 5756 5753 5750 5746 5743 5740 5736 5733 5730 5727
5810 5810 5810 5809 5809 5809 5808 5806 5805 5804 5802 5800 5798 5797 5794 5792 5791 5789 5787 5785 5784 5781 5779 5777 5774 5771 5768 5765 5762 5759 5756 5753 5750 5747 5744 5741 5737 5734 5731 5728 5724 5721 5718
5800 5800 5800 5800 5799 5799 5798 5797 5796 5794 5793 5791 5789 5787 5785 5783 5781 5779 5777 5776 5774 5772 5769 5767 5765 5762 5759 5756 5753 5750 5747 5744 5741 5738 5735 5732 5728 5725 5722 5719 5715 5712 5709
5791 5791 5790 5790 5789 5789 5788 5787 5786 5784 5783 5781 5780 5778 5775 5773 5771 5770 5768 5766 5764 5762 5760 5757 5755 5753 5750 5747 5744 5741 5738 5735 5732 5729 5726 5723 5720 5717 5713 5710 5707 5704 5701
5781 5781 5780 5780 5779 5779 5778 5777 5776 5775 5773 5771 5770 5767 5765 5763 5762 5761 5759 5757 5755 5752 5750 5748 5746 5743 5740 5737 5735 5732 5729 5726 5723 5720 5717 5714 5711 5708 5705 5702 5699 5696 5693
5771 5771 5770 5769 5769 5768 5768 5767 5766 5765 5763 5762 5760 5758 5756 5755 5753 5751 5749 5747 5745 5743 5741 5739 5736 5734 5731 5728 5726 5723 5720 5716 5714 5711 5708 5705 5702 5699 5697 5694 5691 5688 5685
5760 5760 5759 5759 5758 5758 5757 5757 5755 5754 5753 5752 5750 5749 5748 5746 5744 5742 5740 5738 5736 5733 5731 5729 5727 5725 5722 5719 5716 5714 5711 5708 5704 5702 5699 5696 5694 5691 5688 5685 5682 5680 5677
5750 5749 5748 5748 5748 5747 5747 5746 5745 5744 5743 5741 5740 5739 5738 5736 5735 5733 5731 5729 5727 5724 5722 5719 5717 5715 5712 5710 5707 5704 5702 5699 5696 5693 5690 5687 5685 5682 5679 5676 5674 5671 5668
5739 5739 5738 5737 5737 5736 5736 5735 5735 5734 5733 5732 5730 5729 5728 5727 5725 5723 5722 5719 5717 5715 5713 5710 5708 5706 5703 5701 5698 5695 5693 5690 5687 5685 5682 5679 5676 5674 5671 5668 5665 5662 5660